Location: ??????
(55.7522°N, 37.6156°E)
Time: 17:01:32
(UTC+00:00)

Cosmos 1763 Rocket - Pass Details

Date: 14 June 2025
Orbit: 729 x 774 km, 74.0° (Epoch: 12 July)

Event Time Altitude Azimuth Distance (km) Brightness Sun altitude
Rises 20:20:24 0° 331° (NNW) 3,224 8.6 -9.6°
Reaches altitude 10° 20:22:47 10° 330° (NNW) 2,288 7.4 -9.7°
Maximum altitude 20:27:57 75° 246° (WSW) 778 3.5 -9.8°
Enters shadow 20:32:29 13° 162° (SSE) 2,035 5.0 -10.0°
